Theta_e
305 305 305 306 306 306 301 304 301 305 305 309 311 312 314 316 324 328 332 336 337 338 341 342 345 347 349 347 349 350 351 351 354 357 358 360 360 361 363 364 363 360 358 357
305 308 306 303 306 307 307 306 304 303 304 314 319 320 321 322 326 328 332 335 339 340 340 341 343 345 345 347 348 350 351 352 356 359 359 360 361 362 362 357 354 354 356 354
301 305 305 302 307 307 307 308 306 302 309 316 317 318 321 326 328 330 333 334 338 341 342 345 344 346 345 347 350 352 352 354 357 359 360 360 360 359 357 355 356 354 349 344
299 302 293 305 311 309 306 309 312 312 313 315 316 318 323 324 327 331 334 337 340 343 345 347 347 348 350 351 353 353 354 355 358 359 358 358 358 356 356 355 353 346 342 336
296 295 299 303 309 309 308 308 313 312 314 316 317 322 324 321 325 330 337 340 343 346 347 350 349 349 351 351 353 353 353 354 356 357 355 355 354 354 354 350 345 344 340 338
299 295 291 304 311 314 313 303 314 314 315 315 316 311 316 320 323 328 338 341 341 348 348 349 351 348 351 351 351 352 353 354 356 356 354 353 354 352 350 348 344 342 339 338
298 295 299 308 310 314 301 304 314 316 316 316 314 316 320 322 323 327 335 342 345 349 348 350 351 351 350 349 350 353 353 354 354 353 353 352 351 346 347 346 344 341 334 331
298 295 291 311 309 304 308 313 314 316 317 317 318 320 320 321 322 323 329 340 345 348 349 351 350 349 349 349 350 352 351 350 349 348 346 345 346 344 345 344 341 333 332 329
301 300 310 313 311 311 313 312 314 317 317 317 317 318 320 321 322 322 327 336 344 348 349 348 349 349 348 346 348 347 347 343 344 343 340 340 340 340 338 339 337 335 329 324
303 307 307 308 309 310 313 311 314 317 316 317 317 319 319 320 321 323 327 333 338 344 346 346 346 345 350 347 346 341 342 339 340 337 334 335 333 332 331 331 331 329 327 326
303 305 306 306 308 310 310 311 312 315 314 314 316 317 320 321 322 324 329 332 335 336 340 343 342 341 342 343 345 341 338 336 333 330 327 319 315 320 321 315 320 324 322 320
298 305 305 306 309 311 309 311 313 312 312 314 316 318 321 321 323 326 328 329 331 332 329 328 329 330 332 338 340 335 333 330 328 324 322 321 317 311 304 302 299 297 297 306
305 309 308 309 311 311 310 311 313 313 314 314 317 320 320 321 324 324 329 329 328 329 329 325 322 321 323 328 331 331 330 326 324 322 321 320 318 316 311 306 301 299 297 297
311 311 308 311 310 313 313 314 314 315 315 317 318 320 321 322 323 326 328 329 327 325 323 323 321 320 323 323 324 330 329 318 324 322 321 319 318 317 316 314 314 313 302 300
308 309 308 311 311 311 313 314 313 313 315 316 319 320 321 321 322 326 329 330 325 324 323 322 319 319 323 324 328 329 326 323 323 321 319 316 316 314 312 312 312 311 309 306
309 309 310 310 310 311 311 311 311 313 315 318 318 320 322 323 325 327 328 328 323 320 321 320 319 320 324 324 327 329 327 317 318 317 315 314 314 312 310 309 308 307 306 305
307 305 308 309 310 311 312 313 313 313 315 316 318 320 320 322 325 326 325 327 322 321 320 318 318 320 324 328 327 325 324 321 317 312 311 311 310 310 309 307 306 305 303 301
311 311 311 309 308 310 311 313 314 315 316 318 319 320 320 322 323 323 325 325 320 319 320 319 320 320 321 322 319 319 317 314 313 311 308 306 306 308 307 306 307 306 306 302
311 311 311 310 311 310 312 312 313 316 317 318 318 319 322 323 324 326 326 320 317 316 316 318 317 317 313 314 314 312 310 307 305 305 308 305 305 306 306 305 304 303 304 305
310 311 311 310 312 312 311 312 314 316 317 319 320 320 321 323 324 325 323 317 317 317 315 315 314 313 311 312 313 311 311 310 308 306 305 305 304 303 302 300 303 303 302 302
308 310 310 310 310 310 313 314 314 315 317 319 319 320 321 324 325 323 320 314 314 313 311 311 310 309 307 309 309 308 306 305 305 303 303 303 302 302 302 303 301 300 300 300
309 310 310 309 308 310 314 314 315 318 318 319 320 321 321 321 322 321 317 310 310 309 310 309 308 308 307 307 305 304 302 304 304 303 304 304 304 303 302 302 299 299 300 301
310 310 309 308 309 312 315 317 318 318 318 319 320 321 322 324 320 308 306 309 308 307 310 310 308 307 306 305 304 304 304 303 302 303 304 304 304 303 303 303 302 300 300 299
310 309 310 310 311 311 311 314 315 316 316 315 317 323 318 313 312 315 312 309 305 307 308 308 305 304 305 306 306 305 304 304 304 304 304 300 304 304 303 304 303 303 301 298
309 308 309 309 308 308 310 313 316 317 316 315 315 315 315 316 311 312 312 309 305 307 307 304 304 304 307 306 306 306 306 305 305 305 304 304 304 304 304 304 304 303 302 303
309 306 307 308 308 308 310 311 311 312 314 313 314 314 313 312 310 310 309 307 308 306 307 305 306 308 309 308 308 308 308 306 305 306 305 305 305 304 304 304 304 304 304 304
311 305 308 310 311 308 308 310 311 310 310 312 312 313 313 312 309 308 307 308 308 309 307 307 308 307 309 309 309 310 309 309 305 308 308 307 306 306 305 305 305 305 304 304
Wind_Speed
6 7 4 8 10 9 9 14 13 18 19 13 9 12 13 14 14 11 10 9 13 14 13 13 13 13 12 13 13 13 13 13 13 10 9 9 9 10 9 8 5 4 3 4
5 7 7 10 12 14 14 15 15 18 22 6 11 9 12 14 16 14 11 11 10 11 12 14 14 14 13 12 12 12 13 13 10 8 9 9 9 9 8 7 5 3 0 4
11 4 10 14 11 13 11 3 5 11 7 10 11 11 13 16 14 16 15 13 11 12 13 12 14 12 13 12 11 11 11 10 10 10 10 10 10 10 9 7 6 5 5 7
9 8 17 8 3 6 6 4 6 5 4 7 10 7 3 11 14 15 16 15 13 10 8 7 6 11 11 11 12 12 11 10 10 10 10 11 11 10 8 7 7 6 7 7
7 10 16 12 4 3 6 6 7 4 3 7 13 5 6 14 16 15 16 15 12 10 8 7 8 5 9 11 11 12 12 11 11 11 12 12 11 10 9 9 8 7 7 7
5 9 9 6 5 4 3 14 5 3 6 10 11 5 3 17 17 18 18 17 12 9 7 8 10 10 11 10 11 13 12 12 12 12 12 12 11 11 9 9 8 7 7 8
9 10 8 4 6 3 9 4 9 7 9 10 8 8 14 17 16 15 17 18 11 6 8 9 10 11 13 11 12 10 12 12 12 12 12 11 10 9 9 9 9 8 8 7
4 8 13 6 4 4 9 9 10 10 9 10 13 13 15 15 16 18 17 17 12 8 7 7 10 12 12 13 9 12 12 12 11 11 9 9 11 8 9 9 9 8 7 5
6 2 3 4 4 11 9 10 11 10 10 11 13 12 14 14 16 16 17 15 13 11 9 8 11 11 12 9 11 12 11 10 11 10 9 10 11 8 5 5 6 6 4 3
4 2 6 11 13 15 7 11 12 12 12 13 14 13 13 12 13 12 13 12 12 13 11 10 10 9 7 12 13 14 15 9 10 9 9 8 8 7 5 4 4 4 4 3
12 12 19 19 11 14 20 19 18 13 13 14 15 15 14 12 12 13 10 10 10 9 11 8 8 8 11 11 15 13 18 13 11 9 11 10 10 8 6 6 5 3 4 3
14 15 15 15 18 19 19 17 16 18 21 18 13 14 13 11 10 10 11 9 10 8 4 4 6 6 9 11 16 16 13 11 12 9 10 9 8 9 16 13 16 13 11 7
14 13 16 19 20 20 20 21 18 17 15 17 14 13 16 12 10 10 10 10 9 9 7 9 10 9 8 10 12 14 14 12 11 14 7 10 7 6 5 3 10 9 8 8
13 13 14 16 10 15 16 18 17 16 16 16 17 15 14 12 12 11 12 10 7 7 8 10 11 12 11 11 15 17 15 15 10 10 11 9 7 5 5 5 4 3 3 7
11 8 14 15 18 20 17 14 15 15 15 15 14 13 13 13 13 12 10 9 8 7 8 9 10 10 11 12 15 17 14 11 14 11 9 11 11 7 5 2 4 3 4 3
16 15 16 17 19 19 18 16 16 15 14 13 14 13 11 10 11 10 9 10 8 6 5 7 11 9 9 11 11 11 9 13 12 9 8 8 8 8 7 5 5 1 3 3
15 14 14 16 17 19 20 17 16 16 15 15 15 13 11 9 9 10 11 11 4 4 6 7 7 8 9 13 13 10 10 10 14 9 8 7 8 7 9 7 5 4 3 3
17 16 15 14 15 18 19 20 17 17 16 17 14 12 10 9 10 8 11 11 5 4 4 7 9 10 10 9 8 7 8 8 8 9 8 8 9 7 6 6 5 4 2 4
14 14 13 14 16 16 18 17 18 18 16 14 12 12 10 9 8 10 10 10 11 7 6 8 13 10 9 9 10 8 8 9 8 8 8 11 8 8 6 6 5 3 3 3
16 14 14 18 18 17 17 15 19 16 13 11 9 9 10 8 8 10 11 11 11 7 11 11 12 11 10 14 10 9 9 9 9 9 8 9 9 9 6 6 5 5 4 4
17 16 16 17 16 17 13 13 11 11 10 8 8 9 9 5 8 9 9 5 5 15 12 15 8 7 7 12 9 9 10 10 9 9 9 9 10 9 7 7 6 5 4 3
12 12 14 15 16 13 6 4 7 8 8 9 9 8 7 8 9 6 9 13 9 19 11 8 7 12 11 14 8 9 8 11 9 7 9 8 9 8 7 7 7 5 4 3
11 11 11 12 14 9 6 7 7 5 5 7 6 7 8 5 6 10 10 10 12 10 10 11 17 21 17 10 10 11 11 11 9 8 8 8 8 8 7 7 7 5 4 4
11 10 12 14 15 13 12 8 7 8 9 9 6 5 9 7 7 5 11 16 22 10 9 15 16 18 15 11 11 11 10 10 10 9 9 8 7 7 7 7 6 6 5 5
10 10 11 11 12 10 11 9 8 9 10 10 10 8 5 5 8 10 7 11 17 13 12 17 17 15 12 11 10 10 10 9 9 9 8 7 7 5 5 5 6 5 5 5
7 6 7 9 8 7 6 6 6 6 5 7 9 9 9 10 10 11 9 12 10 14 13 12 10 10 10 11 10 10 9 9 9 8 7 6 7 6 5 5 5 6 5 5
6 7 5 7 8 7 7 7 7 7 7 6 7 8 7 8 10 9 7 8 9 11 11 10 9 9 9 9 9 9 8 8 7 8 7 6 6 6 6 5 5 5 4 5
Wind_Direction
262 262 268 264 264 270 236 258 268 283 273 280 331 308 311 312 311 308 277 230 219 206 203 198 199 199 202 211 207 200 197 202 211 214 213 213 213 209 192 190 190 179 256 288
269 268 246 260 269 269 265 262 263 270 276 13 319 317 326 331 326 310 295 283 239 223 210 207 201 197 200 203 201 196 201 205 203 201 203 200 197 180 167 153 142 132 74 352
266 299 299 264 243 258 269 242 276 256 324 335 332 340 349 343 338 324 320 310 271 232 220 213 201 191 200 197 193 195 202 199 193 189 182 178 172 166 163 155 133 116 77 64
277 282 265 301 267 254 240 199 202 221 306 328 317 306 137 15 352 339 337 328 308 267 239 232 225 196 188 180 179 181 186 182 172 170 169 168 164 160 148 138 135 118 98 93
249 243 281 267 211 256 269 269 191 206 275 330 338 152 201 11 354 336 327 318 299 280 249 196 192 180 185 169 169 169 171 169 166 167 161 161 162 155 147 142 137 118 121 108
188 245 260 49 64 7 299 266 166 298 339 340 341 328 347 344 340 335 331 329 309 280 233 217 184 171 172 177 172 169 168 162 158 159 157 160 158 154 148 141 134 127 112 98
235 254 264 32 330 302 250 334 333 319 321 321 322 316 313 317 321 334 333 330 322 290 265 232 191 182 176 170 180 169 153 150 151 152 151 148 144 149 146 147 139 133 120 104
222 239 258 26 156 279 348 319 307 313 310 305 305 307 312 318 321 328 337 333 321 286 261 232 208 190 181 179 153 151 149 145 139 138 140 138 138 144 148 148 144 132 121 107
232 260 65 12 322 334 323 300 301 308 321 314 310 312 315 311 316 319 329 327 316 288 264 222 210 214 191 151 145 136 128 124 127 123 123 123 121 123 130 144 148 152 127 120
286 215 328 314 307 304 313 329 314 300 307 314 306 313 311 309 316 321 320 318 315 292 264 248 206 192 197 155 146 130 118 118 119 117 110 107 109 115 127 127 126 135 137 113
278 284 293 294 311 312 306 306 297 299 304 306 303 298 296 297 305 313 310 300 301 285 274 265 203 177 151 153 146 136 114 144 120 115 94 82 59 60 79 39 19 113 92 66
277 285 285 290 291 293 295 292 293 294 296 293 283 277 279 277 283 290 297 299 291 270 191 153 154 145 156 164 142 137 136 144 130 123 116 105 94 79 51 53 49 44 41 33
280 281 286 285 284 280 276 282 286 287 284 282 277 269 283 286 287 294 287 274 256 253 198 152 142 134 140 139 150 143 137 143 119 120 139 111 114 125 116 59 75 48 20 39
278 278 274 273 278 300 299 293 292 288 280 269 271 274 268 274 280 275 271 260 222 203 188 165 153 148 150 147 134 132 130 143 140 143 131 122 132 157 157 190 144 141 57 30
281 286 255 287 290 285 286 288 292 286 283 276 272 270 263 263 263 259 258 245 202 210 186 168 155 152 155 150 147 152 158 164 142 138 147 136 137 142 137 133 113 78 294 242
291 290 285 282 282 284 284 280 279 284 286 280 280 274 274 264 256 251 231 216 192 199 199 175 153 156 153 151 150 154 143 113 112 120 128 130 135 137 137 120 88 136 282 324
294 289 292 293 296 293 289 285 277 273 281 277 273 278 282 270 252 231 215 201 180 156 137 136 131 124 146 141 142 143 139 136 129 124 131 137 141 153 109 129 144 183 189 32
298 277 272 275 278 283 283 280 276 270 267 269 275 271 265 257 245 222 211 181 128 128 130 145 148 131 140 136 127 138 134 135 133 134 129 123 112 123 122 130 143 161 156 119
302 296 283 282 283 277 275 276 272 269 270 266 269 259 252 254 238 223 199 160 157 163 162 158 141 128 110 127 135 128 131 118 110 118 114 119 119 115 137 127 121 131 187 132
302 295 294 291 290 277 269 262 267 262 266 267 264 255 251 231 216 215 192 173 178 165 143 159 154 139 135 129 148 130 129 129 133 128 129 125 120 117 107 91 137 135 131 110
304 301 301 308 309 306 278 251 239 249 263 274 262 258 264 195 204 207 185 149 139 118 122 125 121 113 118 122 136 128 124 131 130 136 136 119 118 118 131 126 117 114 102 94
313 309 320 327 326 322 312 233 215 239 259 263 262 253 243 220 206 192 150 138 125 127 127 122 121 124 125 130 126 113 117 115 122 132 115 120 123 128 128 125 124 125 134 142
334 332 331 332 333 339 27 43 41 10 317 286 258 239 224 211 154 129 124 125 122 133 137 135 134 135 143 123 112 118 123 121 125 113 114 116 116 121 130 131 130 137 144 124
334 336 338 341 360 15 29 29 33 32 33 21 3 227 136 116 81 118 125 127 127 125 123 131 133 134 126 129 131 126 120 118 116 114 102 104 111 122 133 140 138 144 127 111
353 344 346 352 358 357 4 358 31 27 24 30 23 47 71 111 128 123 133 117 124 126 125 130 135 137 132 129 126 120 117 124 119 117 119 126 123 136 141 140 127 126 131 134
349 349 343 346 337 346 4 354 9 13 11 29 37 35 59 73 80 89 110 123 125 125 129 144 145 138 129 132 134 137 139 129 142 134 138 143 136 138 144 136 142 153 140 144
5 359 353 11 11 358 359 2 17 14 12 34 47 27 49 88 80 86 108 121 129 127 136 146 147 145 145 149 149 154 150 149 150 146 152 155 151 146 156 160 174 170 169 172